Вернуться в каталог

HAWK-6B

АктивенНаукаVLEO
NORAD 55324·PAYLOAD·🇺🇸 United States

Запущен Jan 24, 2023 с Wallops Flight Facility

Loading…

Ближайшие Пролёты (ближайшие 24 часа)

TLE

СвежийSource: Space-Track

Эпоха: Sep 14, 2026, 03:35 UTC

1 55324U 23011A   26257.14987851  .00003781  00000-0  16269-3 0  9997
2 55324  40.4974 192.9057 0003471 290.1086  69.9350 15.23595377201410

Отслеживайте HAWK-6B в реальном времени с AllMySat

Download on the App Store